FENGYUN 1C DEB

Satellite information

Favourite Embed

Satellite Type and Status

DEBRISIN ORBIT

Key statistics

Satellite FENGYUN 1C DEB at a glance.

Uptime

9659

Days in orbit

Revolutions

≈ 14.0

Per day

Orbit

SSO

Sun Synchronous Orbit

Inclination

98.7

Latest

Satellite identification and parameters

Extended collection of information and parameters for FENGYUN 1C DEB.

Object identification

Identified? True

Debris? True

Object name: FENGYUN 1C DEB

International designator: 1999-025CSK

Object number (NORAD): 32141

Object ID (CCSDS): 32141

Country: PEOPLES REPUBLIC OF CHINA (PRC)

Current information (Y/N): Y

RCS size: SMALL

Orbital parameters

Period: 102.608 minutes

Inclination: 98.7451 deg

SMA: 7260.162 km

Apoapsis: 935.901 km

Periapsis: 828.153 km

RAAN: 295.2934 deg

Eccentricy: 0.00742049

Argument of periapsis: 5.6458 deg

Mean anomaly: 354.5529 deg

Mean motion: 14.03405947 rev/day

Mean motion (dot): 0.00001316 rev/day2

B* drag term: 0.00084740132 1/REarth

Two-line elements (TLE)

Creation date: Oct. 18, 2025, 2:17 a.m.

Reference frame: TEME

Reference center: EARTH

Epoch: Oct. 17, 2025, 5:47 p.m. UTC

TLE line 0: 0 FENGYUN 1C DEB

TLE line 1: 1 32141U 99025CSK 25290.74157862 .00001316 00000-0 84740-3 0 9991

TLE line 2: 2 32141 98.7451 295.2934 0074205 5.6458 354.5529 14.03405947941584

Live tracking on map

Real-time ground track for satellite FENGYUN 1C DEB.

In-orbit conjunctions

A list of the most updated potential collisions computed for object FENGYUN 1C DEB.

Target Orbit TCA Probability of collision Miss distance Type
EXPLORER 20 LEO 2024-12-01 00:38:23 0.0002640965 395.0 (m) PAYLOAD
DMSP 5D-2 F13 DEB SSO 2024-11-06 01:28:53 0.0001017046 126.0 (m) DEBRIS

Associated space launch

Chinese polar orbiting meteorological satellite

FENGYUN 1C DEB was lifted into orbit during the mission ‘Long March 4B | Feng Yun 1C’, on board a Long March 4B space rocket.

The launch took place on May 10, 1999, 1:33 a.m. from Launch Complex 7.

For more information about the launch, click the button.

Launch to space Long March 4B | Feng Yun 1C
Long March 4B | Feng Yun 1C

Agency: N/A

Status: Launch Successful

Launch date: May 10, 1999, 1:33 a.m. UTC

Rocket: Long March 4B

Launch pad: Launch Complex 7

Location: Taiyuan Satellite Launch Center, People's Republic of China

...

Latest news about this satellite

There are no fresh news available about this satellite. Check back as we update our databases every day.


Newsletter sign-up

Weekly statistics, charts and insights to help you stay on top of the space industry.